Location: Ceske Budejovice
(48.9833°N, 14.4667°E)
Time: 16:15:00
(UTC+02:00)

ISS - Visible Passes

Search period start: 26 September 2018 00:00
Search period end: 06 October 2018 00:00
Orbit: 403 x 408 km, 51.6° (Epoch: 26 September)

Date Brightness Start Highest point End Pass type
(mag) Time Alt. Az. Time Alt. Az. Time Alt. Az.
26 Sep -3.9 20:11:30 10° WSW 20:14:47 76° SSE 20:16:23 28° ENE visible
26 Sep -0.9 21:48:12 10° W 21:49:04 17° WNW 21:49:04 17° WNW visible
27 Sep -3.5 19:19:44 10° SW 19:22:56 50° SSE 19:26:09 10° ENE visible
27 Sep -3.3 20:56:11 10° W 20:59:15 56° NNW 20:59:15 56° NNW visible
28 Sep -3.6 20:04:11 10° W 20:07:29 70° NNW 20:09:23 23° ENE visible
28 Sep -1.0 21:40:59 10° WNW 21:42:03 19° WNW 21:42:03 19° WNW visible
29 Sep -3.8 19:12:13 10° WSW 19:15:32 87° SSE 19:18:51 10° ENE visible
29 Sep -3.2 20:48:59 10° W 20:52:07 50° N 20:52:07 50° N visible
30 Sep -3.3 19:56:56 10° W 20:00:11 54° N 20:02:08 21° ENE visible
30 Sep -1.1 21:33:39 10° WNW 21:34:48 20° WNW 21:34:48 20° WNW visible
01 Oct -3.3 20:41:40 10° WNW 20:44:47 54° N 20:44:47 54° N visible
02 Oct -3.3 19:49:38 10° WNW 19:52:52 51° N 19:54:46 22° ENE visible
02 Oct -1.1 21:26:15 10° WNW 21:27:26 20° WNW 21:27:26 20° WNW visible
03 Oct -3.7 20:34:15 10° WNW 20:37:24 69° N 20:37:24 69° N visible
04 Oct -3.5 19:42:14 10° WNW 19:45:31 57° N 19:47:23 22° E visible
04 Oct -1.2 21:18:48 10° WNW 21:20:03 21° W 21:20:03 21° W visible
05 Oct -3.9 20:26:45 10° WNW 20:30:03 77° SSW 20:30:03 77° SSW visible
